Weather in Dobrovolnoye

Russia / Stavropol Krai     45°35′43″N   42°24′05″E
temp.,
°C
wind,
m/s
gust,
m/s
humid.,
%
clouds,
%
prec.,
mm/h
press.,
hPa
HPBL,
m
8 may, sat
sat800:00+12wsw227899 0.0 101811
03:00+11sse228138 0.0 101811
06:00+13se337849 0.0 101764
09:00+19se455799 0.0 1016611
12:00+22se564847 0.0 10141406
15:00+23sse5648100 0.0 10131536
18:00+20se486595 0.0 1012254
21:00+15sse4973100 0.0 1012137
9 may, sun
sun900:00+14se5117625 0.0 1010194
03:00+13se4969100 0.0 1009162
06:00+14wsw3878100 0.0 1009224
09:00+17wnw81173100 0.0 1008867
12:00+13wnw61094100 1.1 1011571
15:00+8wnw101495100 6.6 1014726
18:00+6wnw91392100 1.3 10191051
21:00+8w61190100 1.4 1020905
10 may, mon
mon1000:00+7wnw71388100 0.0 1021748
03:00+6w61092100 0.1 1021372
06:00+5w711895 0.1 1021409
09:00+10wnw7116859 0.3 10211345
12:00+12w9115088 0.1 10192172
15:00+12w9125683 0.3 10182026
18:00+9w712745 0.2 10181268
21:00+7wsw71184100 0.2 10191025
11 may, tue
tue1100:00+6wsw81382100 0.1 1018868
03:00+7sw61385100 0.2 1018959
06:00+7sw71477100 0.3 10181108
09:00+10sse61067100 0.4 1018798
12:00+14sse91059100 0.1 10171295
15:00+14sse6757100 0.3 10181648
18:00+13sse366599 0.1 1019282
21:00+10nne227523 0.1 102024
12 may, wed
wed1200:00+7ne23885 0.0 101929
03:00+6e22896 0.0 101826
06:00+8ese388591 0.0 1018222
09:00+14ese7106036 0.0 10181019
12:00+18ese68534 0.0 10171448
15:00+19ese675123 0.0 10161699
18:00+18ese47630 0.0 1016249
21:00+13ese33750 0.0 101627